SL-16 DEB

Satellite information

Favourite Embed

Satellite Type and Status

DEBRISIN ORBIT

Key statistics

Satellite SL-16 DEB at a glance.

Uptime

11989

Days in orbit

Revolutions

≈ 14.0

Per day

Orbit

LEO

Low Earth Orbit

Inclination

70.7

Latest

Satellite identification and parameters

Extended collection of information and parameters for SL-16 DEB.

Object identification

Identified? True

Debris? True

Object name: SL-16 DEB

International designator: 1992-093P

Object number (NORAD): 22326

Object ID (CCSDS): 22326

Country: COMMONWEALTH OF INDEPENDENT STATES (CIS)

Current information (Y/N): Y

RCS size: SMALL

Orbital parameters

Period: 102.995 minutes

Inclination: 70.6618 deg

SMA: 7278.433 km

Apoapsis: 1002.787 km

Periapsis: 797.809 km

RAAN: 227.6358 deg

Eccentricy: 0.0140812

Argument of periapsis: 228.1103 deg

Mean anomaly: 196.949 deg

Mean motion: 13.98124725 rev/day

Mean motion (dot): 0.00001686 rev/day2

B* drag term: 0.00112 1/REarth

Two-line elements (TLE)

Creation date: Oct. 22, 2025, 12:06 a.m.

Reference frame: TEME

Reference center: EARTH

Epoch: Oct. 21, 2025, 8:53 p.m. UTC

TLE line 0: 0 SL-16 DEB

TLE line 1: 1 22326U 92093P 25294.87024067 .00001686 00000-0 11200-2 0 9991

TLE line 2: 2 22326 70.6618 227.6358 0140812 228.1103 196.9490 13.98124725661161

Live tracking on map

Real-time ground track for satellite SL-16 DEB.

In-orbit conjunctions

A list of the most updated potential collisions computed for object SL-16 DEB.

Target Orbit TCA Probability of collision Miss distance Type
COSMOS 1375 DEB LEO 2025-01-31 02:20:09 0.0001042621 205.0 (m) DEBRIS
CZ-4C R/B SSO 2025-01-02 19:37:41 0.0008086103 190.0 (m) ROCKET BODY
CZ-6A DEB LEO 2024-12-10 08:12:46 0.0001062116 522.0 (m) DEBRIS
COSMOS 2251 DEB LEO 2024-11-11 15:34:02 0.0001184794 686.0 (m) DEBRIS
COSMOS 422 LEO 2024-11-07 14:57:32 0.0001860313 887.0 (m) PAYLOAD

Associated space launch

Second generation ELING satellite

SL-16 DEB was lifted into orbit during the mission ‘Zenit-2 | Tselina-2 12’, on board a Zenit-2 space rocket.

The launch took place on Dec. 25, 1992, 5:56 a.m. from 45/1.

For more information about the launch, click the button.

Launch to space Zenit-2 | Tselina-2 12
Zenit-2 | Tselina-2 12

Agency: N/A

Status: Launch Successful

Launch date: Dec. 25, 1992, 5:56 a.m. UTC

Rocket: Zenit-2

Launch pad: 45/1

Location: Baikonur Cosmodrome, Republic of Kazakhstan

...

Latest news about this satellite

There are no fresh news available about this satellite. Check back as we update our databases every day.


Newsletter sign-up

Weekly statistics, charts and insights to help you stay on top of the space industry.